Stations météo

réclame
Mon MeteoGroup
Regensburg, Allemagne (10776): Température de l'air & dewpoint: 13.07.2018 19:00:00 - 19.07.2018 19:00:00 (CEST)Regensburg, Allemagne (10776): Température de l'air 5cm & Température de l'air -5cm: 13.07.2018 19:00:00 - 19.07.2018 19:00:00 (CEST)Regensburg, Allemagne (10776): Température de l'air -20cm & Température de l'air -100cm: 13.07.2018 19:00:00 - 19.07.2018 19:00:00 (CEST)Regensburg, Allemagne (10776): Vitesse du vent & gusts: 13.07.2018 19:00:00 - 19.07.2018 19:00:00 (CEST)Regensburg, Allemagne (10776): Direction du vent: 13.07.2018 19:00:00 - 19.07.2018 19:00:00 (CEST)Regensburg, Allemagne (10776): reduced air pressure: 13.07.2018 19:00:00 - 19.07.2018 19:00:00 (CEST)Regensburg, Allemagne (10776): visibility: 13.07.2018 19:00:00 - 19.07.2018 19:00:00 (CEST)Regensburg, Allemagne (10776): Ensoleillement: 13.07.2018 19:00:00 - 19.07.2018 19:00:00 (CEST)Regensburg, Allemagne (10776): Quantités de précipitations: 13.07.2018 19:00:00 - 19.07.2018 19:00:00 (CEST)
Date & Time tt [°C] td [°C] tt 5cm [°C] tt -5cm [°C] tt -20cm [°C] tt -100cm [°C] ff [km/h] ff [knt] fx [km/h] fx [knt] dd ppp [hPa] vv [km] sd [min] rr [mm]
19.07.2018 19:00:00 28,5 8,8 28,3 33,3 26,8 19,4 7 4 22 12 WNW 1013,0 35 60 0,0
19.07.2018 18:00:00 29,3 8,6 31,2 34,8 26,2 19,4 8 4 20 11 NNW 1013,2 36 60 0,0
19.07.2018 17:00:00 29,2 10,1 33,4 36,0 25,4 19,4 5 3 22 12 N 1013,6 32 60 0,0
19.07.2018 16:00:00 29,9 11,2 35,0 36,5 24,5 19,4 10 5 25 14 NW 1013,9 23 57 0,0
19.07.2018 15:00:00 30,0 11,2 35,7 36,5 23,6 19,4 9 5 26 14 NW 1014,2 23 60 0,0
19.07.2018 14:00:00 28,2 8,5 33,5 35,4 22,6 19,4 6 3 24 13 N 1014,8 21 60 0,0
19.07.2018 13:00:00 27,4 10,8 34,2 33,0 21,8 19,4 8 5 28 15 NW 1015,3 36 60 0,0
19.07.2018 12:00:00 26,6 12,3 33,2 30,0 21,2 19,4 9 5 21 12 WNW 1015,7 25 59 0,0
19.07.2018 11:00:00 25,1 10,8 29,5 26,6 20,9 19,4 6 3 16 9 NNW 1016,1 29 60 0,0
19.07.2018 10:00:00 23,6 10,0 26,5 22,8 20,8 19,4 6 4 13 7 N 1016,5 39 60 0,0
19.07.2018 09:00:00 20,6 11,4 21,5 18,0 21,1 19,4 8 5 16 9 NNW 1017,0 25 60 0,0
19.07.2018 08:00:00 15,7 11,0 13,9 16,1 21,4 19,4 7 4 14 8 NNW 1017,7 23 60 0,0
19.07.2018 07:00:00 13,2 10,1 11,6 15,9 21,8 19,4 8 4 13 7 N 1018,0 25 22 0,0
19.07.2018 06:00:00 12,1 9,5 10,5 16,2 22,2 19,4 5 3 10 5 N 1017,8 23 0 0,0
19.07.2018 05:00:00 12,8 9,5 10,5 16,8 22,7 19,4 3 2 6 4 NNW 1017,7 22 0 0,0
19.07.2018 04:00:00 14,0 9,6 11,3 17,4 23,1 19,4 4 2 8 4 NNE 1017,3 27 0 0,0
19.07.2018 03:00:00 14,7 10,4 11,7 18,2 23,5 19,4 5 3 10 5 NNW 1016,9 21 0 0,0
19.07.2018 02:00:00 14,9 11,2 12,7 19,0 24,0 19,4 5 3 9 5 N 1016,8 32 0 0,0
19.07.2018 01:00:00 16,8 10,3 13,3 19,9 24,4 19,4 4 2 8 5 NNW 1016,4 36 0 0,0
19.07.2018 00:00:00 18,1 10,6 14,7 20,9 24,8 19,4 4 2 8 4 NNW 1016,0 31 0 0,0
18.07.2018 23:00:00 20,4 10,2 15,8 22,1 25,1 19,4 5 3 8 4 N 1015,2 35 0 0,0
18.07.2018 22:00:00 20,9 10,1 17,2 23,6 25,4 19,4 5 3 19 11 NW 1014,9 37 0 0,0
18.07.2018 21:00:00 23,3 10,9 19,9 25,3 25,5 19,4 10 5 28 15 NNW 1014,1 39 14 0,0
18.07.2018 20:00:00 25,6 11,1 23,2 27,3 25,3 19,4 9 5 31 17 NW 1013,5 38 60 0,0
18.07.2018 19:00:00 28,0 11,0 27,6 29,6 25,0 19,4 12 7 32 17 NW 1013,0 34 55 0,0
18.07.2018 18:00:00 29,1 11,2 30,5 30,9 24,6 19,4 9 5 34 19 NW 1013,0 26 56 0,0
18.07.2018 17:00:00 29,2 13,2 32,6 31,8 24,0 19,4 16 8 35 19 NW 1013,2 23 56 0,0
18.07.2018 16:00:00 28,8 10,8 30,5 32,0 23,5 19,4 14 8 32 17 WNW 1013,4 22 55 0,0
18.07.2018 15:00:00 29,4 12,7 34,9 30,7 22,9 19,4 14 8 34 18 W 1013,5 22 42 0,0
18.07.2018 14:00:00 28,7 13,0 34,1 30,6 22,3 19,4 12 7 33 18 NW 1014,0 37 46 0,0
18.07.2018 13:00:00 27,7 12,5 32,3 29,2 21,7 19,4 13 7 29 16 W 1014,4 31 39 0,0
18.07.2018 12:00:00 25,8 12,3 27,0 28,9 21,1 19,4 12 7 26 14 NW 1014,9 31 50 0,0
18.07.2018 11:00:00 26,0 12,8 30,6 26,9 20,7 19,4 9 5 22 12 NW 1014,9 24 60 0,0
18.07.2018 10:00:00 24,8 13,7 27,4 23,6 20,6 19,4 8 5 18 10 NW 1015,2 27 60 0,0
18.07.2018 09:00:00 22,4 12,4 22,6 19,5 20,7 19,4 5 3 10 6 N 1015,6 23 60 0,0
18.07.2018 08:00:00 18,8 13,2 16,5 17,9 20,9 19,4 0 0 7 4 N 1015,8 22 50 0,0
18.07.2018 07:00:00 16,5 13,0 14,7 17,7 21,1 19,4 4 2 6 3 N 1015,8 24 17 0,0
18.07.2018 06:00:00 17,7 12,2 15,7 17,9 21,4 19,4 3 1 5 3 S 1015,2 28 0 0,0
18.07.2018 05:00:00 17,6 12,3 15,8 17,8 21,7 19,4 3 2 7 4 SSE 1014,9 27 0 0,0
18.07.2018 04:00:00 16,6 11,8 13,9 17,9 22,0 19,4 4 2 8 5 SSW 1015,1 28 0 0,0
18.07.2018 03:00:00 18,0 11,5 14,9 18,3 22,3 19,4 3 2 12 6 S 1015,0 27 0 0,0
18.07.2018 02:00:00 18,8 11,1 15,6 18,9 22,6 19,4 4 2 15 8 W 1014,7 44 0 0,0
18.07.2018 01:00:00 19,6 11,6 16,7 19,5 22,9 19,4 10 5 26 14 W 1014,2 47 0 0,0
18.07.2018 00:00:00 20,2 11,8 18,2 19,7 23,3 19,4 16 9 27 15 W 1014,1 41 0 0,0
17.07.2018 23:00:00 19,3 12,2 16,9 20,3 23,6 19,4 14 8 23 12 WSW 1013,8 34 0 0,0
17.07.2018 22:00:00 18,4 14,0 16,0 21,5 23,9 19,4 10 6 15 8 WSW 1013,6 35 0 0,0
17.07.2018 21:00:00 20,3 14,9 17,4 22,9 24,1 19,4 3 2 10 5 NNW 1012,8 33 5 0,0
17.07.2018 20:00:00 20,7 16,6 19,2 24,2 24,1 19,4 5 3 16 9 S 1012,3 35 16 0,0
17.07.2018 19:00:00 20,2 14,8 18,7 25,4 24,0 19,4 14 8 41 22 NNE 1012,4 26 4 1,6
17.07.2018 18:00:00 25,8 11,0 25,2 27,9 23,7 19,4 12 6 34 18 W 1011,5 40 45 0,0
17.07.2018 17:00:00 27,0 11,9 27,9 28,9 23,3 19,4 19 10 36 19 W 1011,4 27 53 0,0
17.07.2018 16:00:00 28,3 10,7 31,0 30,5 22,7 19,4 16 8 36 20 WNW 1011,1 35 57 0,0
17.07.2018 15:00:00 29,0 11,0 31,9 30,1 22,1 19,4 14 7 37 20 NW 1011,2 42 52 0,0
17.07.2018 14:00:00 28,2 12,7 32,0 29,3 21,5 19,4 9 5 34 19 W 1011,6 33 52 0,0
17.07.2018 13:00:00 25,2 11,4 27,3 27,3 21,0 19,4 8 5 22 12 W 1012,8 37 20 0,0
17.07.2018 12:00:00 25,1 12,2 28,8 27,8 20,4 19,4 10 6 22 12 W 1012,9 30 45 0,0
17.07.2018 11:00:00 25,1 11,6 28,2 25,7 20,0 19,4 6 3 12 6 N 1012,9 37 60 0,0
17.07.2018 10:00:00 22,4 13,8 24,7 22,3 19,9 19,4 2 1 6 4 E 1013,2 27 60 0,0
17.07.2018 09:00:00 18,7 14,2 17,7 18,2 20,1 19,4 0 0 6 3 N 1013,9 22 53 0,0
17.07.2018 08:00:00 15,3 13,6 14,4 16,3 20,3 19,4 0 0 7 4 N 1014,4 17 52 0,0
17.07.2018 07:00:00 13,0 12,6 12,7 15,8 20,6 19,4 3 2 9 5 NW 1014,6 7 18 0,1
17.07.2018 06:00:00 12,8 12,4 11,9 15,9 20,9 19,4 4 2 5 3 N 1014,3 5 0 0,0
17.07.2018 05:00:00 12,9 12,5 11,7 16,4 21,2 19,4 3 2 8 5 WNW 1013,9 8 0 0,0
17.07.2018 04:00:00 13,6 13,1 12,6 17,1 21,5 19,4 3 2 8 4 NW 1013,6 9 0 0,0
17.07.2018 03:00:00 14,2 13,7 13,9 17,7 21,9 19,4 5 3 8 4 N 1013,3 6 0 0,0
17.07.2018 02:00:00 14,6 13,8 14,0 18,0 22,2 19,4 4 2 7 4 N 1013,5 9 0 0,0
17.07.2018 01:00:00 14,3 13,8 13,6 18,1 22,6 19,4 2 1 9 5 NW 1013,5 10 0 0,0
17.07.2018 00:00:00 15,0 14,1 13,8 18,8 22,9 19,4 5 3 8 4 N 1013,2 14 0 0,0
16.07.2018 23:00:00 16,1 14,2 14,2 19,6 23,3 19,4 8 4 10 5 NNE 1012,8 22 0 0,0
16.07.2018 22:00:00 17,0 13,7 14,7 20,7 23,5 19,4 6 3 11 6 N 1012,4 30 0 0,0
16.07.2018 21:00:00 19,0 12,9 16,0 22,1 23,7 19,4 5 3 10 5 NNW 1011,6 38 15 0,0
16.07.2018 20:00:00 20,9 12,0 19,1 23,5 23,7 19,4 7 4 13 7 NNE 1011,0 40 60 0,0
16.07.2018 19:00:00 21,7 13,0 21,8 25,2 23,6 19,4 6 4 15 8 NNE 1011,4 29 51 0,0
16.07.2018 18:00:00 20,0 14,3 20,8 26,1 23,4 19,4 6 3 24 13 NNW 1012,1 37 14 0,0
16.07.2018 17:00:00 22,3 16,2 25,5 27,9 23,3 19,4 12 6 26 14 NNW 1011,8 31 60 0,0
16.07.2018 16:00:00 20,5 19,2 23,8 24,8 23,1 19,4 7 4 25 13 W 1011,9 23 13 9,9
16.07.2018 15:00:00 18,0 14,7 17,0 28,0 22,3 19,4 9 5 17 9 ESE 1013,5 0,6 0 7,5
16.07.2018 14:00:00 25,4 12,8 28,5 33,0 21,5 19,4 7 4 15 8 NW 1011,9 27 43 0,0
16.07.2018 13:00:00 24,7 13,1 30,7 30,9 20,8 19,4 9 5 16 8 SW 1012,3 26 45 0,0
16.07.2018 12:00:00 23,2 12,4 29,9 27,3 20,4 19,4 6 4 14 8 E 1013,2 25 57 0,0
16.07.2018 11:00:00 21,3 14,7 24,3 22,8 20,3 19,4 4 2 10 5 SSW 1013,9 20 36 0,0
16.07.2018 10:00:00 19,8 14,6 22,9 20,2 20,2 19,4 4 2 8 4 S 1014,1 21 11 0,0
16.07.2018 09:00:00 18,0 14,2 18,7 18,9 20,3 19,4 4 2 12 6 SSW 1014,7 22 16 0,0
16.07.2018 08:00:00 16,5 14,0 16,0 17,5 20,5 19,4 4 2 5 3 SSE 1014,8 14 29 0,0
16.07.2018 07:00:00 14,0 13,2 13,7 16,5 20,7 19,4 3 2 8 4 NNE 1015,2 12 1 0,0
16.07.2018 06:00:00 12,8 12,3 12,4 16,2 21,0 19,4 5 3 7 4 N 1015,1 9 0 0,0
16.07.2018 05:00:00 13,2 12,5 11,8 16,5 21,3 19,4 3 2 5 3 ENE 1015,2 11 0 0,0
16.07.2018 04:00:00 13,3 12,7 12,3 16,9 21,7 19,4 4 2 6 3 N 1015,6 11 0 0,0
16.07.2018 03:00:00 13,8 12,9 13,0 17,2 22,0 19,4 5 3 6 3 NNE 1015,9 12 0 0,0
16.07.2018 02:00:00 14,1 13,2 12,3 17,6 22,4 19,4 4 2 8 4 N 1015,8 14 0 0,0
16.07.2018 01:00:00 14,4 13,4 12,9 18,2 22,7 19,4 0 0 5 3 N 1015,7 15 0 0,0
16.07.2018 00:00:00 15,3 14,0 13,4 18,9 23,1 19,4 2 1 10 5 S 1015,6 19 0 0,0
15.07.2018 23:00:00 16,2 14,0 14,0 19,7 23,4 19,4 3 2 7 4 SE 1015,4 25 0 0,0
15.07.2018 22:00:00 17,8 13,9 14,9 20,7 23,7 19,4 3 2 6 3 SSE 1015,3 27 0 0,0
15.07.2018 21:00:00 19,3 13,4 16,4 21,9 23,9 19,4 4 2 9 5 SSE 1014,6 35 3 0,0
15.07.2018 20:00:00 20,9 13,3 19,2 23,3 24,0 19,4 6 3 21 11 SSE 1013,8 31 22 0,0
15.07.2018 19:00:00 22,4 12,0 22,7 24,6 24,1 19,4 7 4 12 6 SSE 1014,0 37 4 0,0
15.07.2018 18:00:00 21,7 13,0 21,9 25,5 24,1 19,4 5 3 16 8 S 1014,4 36 0 0,0
15.07.2018 17:00:00 22,3 12,6 23,4 26,3 24,0 19,4 5 3 23 12 S 1014,6 32 26 0,0
15.07.2018 16:00:00 21,5 14,8 22,9 26,1 24,0 19,4 10 5 19 11 ESE 1014,0 41 8 0,4
15.07.2018 15:00:00 16,8 12,9 15,9 26,4 23,6 19,4 18 10 45 24 W 1015,6 4,1 0 1,5
15.07.2018 14:00:00 21,7 11,9 22,9 31,1 22,9 19,4 13 7 40 22 WNW 1014,7 16 0 0,0
15.07.2018 13:00:00 28,0 11,4 32,6 34,0 22,1 19,4 8 5 21 11 SW 1013,5 38 55 0,0
15.07.2018 12:00:00 26,0 13,7 31,7 30,9 21,4 19,4 10 5 17 9 SE 1014,5 26 60 0,0
15.07.2018 11:00:00 24,2 13,7 30,2 27,4 21,1 19,4 9 5 18 10 SSE 1015,4 22 60 0,0
15.07.2018 10:00:00 22,3 12,8 26,2 23,7 21,0 19,4 10 5 19 10 SE 1015,8 15 60 0,0
15.07.2018 09:00:00 20,4 13,7 23,3 19,6 21,1 19,4 5 3 9 5 SE 1016,0 15 60 0,0
15.07.2018 08:00:00 16,5 13,4 15,5 17,5 21,4 19,4 3 1 6 3 S 1016,5 15 60 0,0
15.07.2018 07:00:00 13,9 12,8 13,2 17,2 21,7 19,3 4 2 7 4 NNW 1016,7 11 25 0,0
15.07.2018 06:00:00 12,7 12,0 11,7 17,2 22,0 19,3 4 2 9 5 NNE 1017,1 10 0 0,0
15.07.2018 05:00:00 13,1 12,2 11,5 17,7 22,4 19,3 6 3 8 4 N 1016,8 12 0 0,0
15.07.2018 04:00:00 13,9 12,5 12,3 18,2 22,7 19,3 5 3 8 4 N 1017,0 14 0 0,0
15.07.2018 03:00:00 15,1 13,2 12,7 18,9 23,1 19,3 5 3 8 4 SSE 1017,2 15 0 0,0
15.07.2018 02:00:00 15,2 12,8 13,3 19,6 23,4 19,3 6 3 17 9 N 1017,2 17 0 0,0
15.07.2018 01:00:00 16,2 13,9 14,9 20,3 23,7 19,3 5 3 7 4 NNE 1017,1 17 0 0,0
15.07.2018 00:00:00 16,6 13,9 14,3 21,0 24,0 19,3 0 0 4 2 N 1016,8 21 0 0,0
14.07.2018 23:00:00 18,0 14,4 15,2 22,0 24,3 19,3 0 0 8 4 N 1016,4 19 0 0,0
14.07.2018 22:00:00 20,8 14,1 16,7 23,1 24,5 19,3 4 2 4 2 NNE 1015,9 33 0 0,0
14.07.2018 21:00:00 21,8 13,7 18,7 24,6 24,5 19,3 2 1 7 4 SW 1015,3 36 16 0,0
14.07.2018 20:00:00 24,4 12,9 21,3 26,2 24,5 19,3 4 2 11 6 WNW 1015,1 35 60 0,0
14.07.2018 19:00:00 26,4 13,0 25,6 27,5 24,3 19,3 5 3 12 7 WNW 1015,1 36 28 0,0
14.07.2018 18:00:00 26,3 14,6 27,7 28,0 24,2 19,3 6 4 16 8 W 1015,3 29 8 0,0
14.07.2018 17:00:00 26,2 15,1 28,0 28,0 24,0 19,3 6 3 20 11 WSW 1015,6 32 24 0,0
14.07.2018 16:00:00 21,5 15,5 20,5 26,9 23,9 19,3 6 4 22 12 WSW 1016,8 23 3 0,1
14.07.2018 15:00:00 21,8 15,0 24,5 27,6 23,6 19,3 12 7 28 15 SW 1017,3 27 1 0,1
14.07.2018 14:00:00 22,0 14,9 21,3 29,1 23,1 19,3 9 5 24 13 SW 1017,7 20 9 0,1
14.07.2018 13:00:00 24,1 12,6 22,7 30,6 22,4 19,3 8 5 15 8 NNE 1017,3 13 18 0,1
14.07.2018 12:00:00 27,3 12,3 33,4 31,1 21,8 19,3 5 3 11 6 NW 1017,2 34 59 0,0
14.07.2018 11:00:00 25,4 12,7 30,2 27,3 21,4 19,3 4 2 9 5 WSW 1017,7 35 48 0,0
14.07.2018 10:00:00 23,0 12,9 28,1 24,2 21,4 19,3 4 2 12 6 NW 1018,4 25 59 0,0
14.07.2018 09:00:00 20,5 14,7 22,9 19,9 21,6 19,3 7 4 11 6 NNW 1018,7 19 60 0,0
14.07.2018 08:00:00 15,4 13,5 14,2 17,6 21,9 19,3 6 4 13 7 N 1019,3 12 60 0,0
14.07.2018 07:00:00 13,1 12,4 12,8 17,3 22,3 19,3 6 3 13 7 N 1019,8 16 26 0,0
14.07.2018 06:00:00 12,0 11,4 11,2 17,5 22,7 19,3 5 3 11 6 N 1019,7 12 0 0,0
14.07.2018 05:00:00 12,4 11,9 11,2 18,0 23,1 19,3 6 3 9 5 N 1019,4 12 0 0,0
14.07.2018 04:00:00 12,8 12,2 11,5 18,7 23,5 19,3 4 2 8 5 NNW 1019,4 15 0 0,0
14.07.2018 03:00:00 13,4 12,5 12,1 19,5 23,9 19,3 7 4 11 6 N 1019,3 17 0 0,0
14.07.2018 02:00:00 14,0 13,1 13,1 20,3 24,3 19,3 4 2 9 5 NNE 1019,4 20 0 0,0
14.07.2018 01:00:00 15,0 13,8 13,7 21,2 24,7 19,3 4 2 10 5 N 1019,2 20 0 0,0
14.07.2018 00:00:00 15,9 14,5 14,6 22,2 25,1 19,3 4 2 8 4 N 1019,0 20 0 0,0
13.07.2018 23:00:00 17,5 14,2 15,7 23,4 25,4 19,3 5 3 8 4 N 1018,7 30 0 0,0
13.07.2018 22:00:00 19,4 14,2 17,1 24,9 25,6 19,3 5 3 8 4 N 1018,3 34 0 0,0
13.07.2018 21:00:00 20,8 13,8 20,0 26,7 25,7 19,3 5 3 22 12 NNE 1017,7 37 7 0,0
13.07.2018 20:00:00 22,8 12,7 22,9 28,5 25,6 19,3 15 8 33 18 N 1016,9 40 6 0,0
13.07.2018 19:00:00 25,9 10,7 26,7 30,3 25,3 19,3 3 1 14 8 WNW 1016,2 39 30 0,0

tt = Température de l'air
td = dewpoint
tt 5cm = Température de l'air 5cm
tt -5cm = Température de l'air -5cm
tt -20cm = Température de l'air -20cm
tt -100cm = Température de l'air -100cm
ff = Vitesse du vent
fx = gusts
dd = Direction du vent
ppp = reduced air pressure
vv = visibility
sd = Ensoleillement
rr = Quantités de précipitations

stations d'obs. à proximité